User: anonymous   Login
Location: Unspecified
(0.0000°N, 0.0000°E)
Time: 17:22:20
(UTC+01:00)
Language:

N. Korean satellite - Orbit

View from above orbital plane
View from above orbital plane
View from above satellite
View from above satellite

Ground track
Ground track

The orbit data is extracted from the following two-line orbital elements,

1 39026U 12072A   19081.17250240  .00001650  00000-0  62520-4 0  9993
2 39026  97.2119  87.2019 0039918  57.4789 303.0297 15.27550337348083
Epoch (UTC): 22 March 2019 04:08:24
Eccentricity: 0.0039918
inclination: 97.2119°
perigee height: 456 km
apogee height: 510 km
right ascension of ascending node: 87.2019°
argument of perigee: 57.4789°
revolutions per day: 15.27550337
mean anomaly at epoch: 303.0297°
orbit number at epoch: 34808

The dashed part of the orbit path shows where the satellite is in the earth's shadow,  

DLR